Simultaneous Nadir Overpasses (SNOs) Predictions

Prediction of SNOs between GOES-14 and NOAA-20 Satellite Orbit:

Table of predicted SNOs for the next 14.0 days since TLE Epoch: 8/19/2023
Index Date Time (GOES-14) GOES-14 Lat,Lon NOAA-20 Lat,Lon Distance(km) Time Diff (sec)
1 08/20/2023 08:50:23 -0.48,-108.65 0.15,-111.52 327.76 80
2 08/21/2023 08:34:17 -0.47,-108.65 -0.83,-106.99 188.86 80
3 08/22/2023 20:53:33 0.49,-108.55 -0.37,-112.29 426.85 80
4 08/23/2023 20:37:28 0.48,-108.54 0.68,-107.76 89.59 80
5 08/26/2023 08:40:31 -0.50,-108.63 -0.55,-108.51 14.72 80
6 08/28/2023 20:41:01 0.51,-108.52 0.36,-109.28 86.44 80
7 08/29/2023 20:24:55 0.51,-108.51 1.35,-104.74 429.54 80
8 08/31/2023 08:44:03 -0.52,-108.60 -0.18,-110.01 161.40 80
9 09/01/2023 08:27:58 -0.52,-108.60 -1.24,-105.49 354.78 80
